WESTFORD NEEDLES, 2997

Orbit data source: Space-Track

WESTFORD NEEDLES, 2997 is space debris in LEO originally from a launch on Thu, 09 May 1963 UTC launched from the Air Force Western Test Range (AFWTR). Debris objects in space refer to the collection of defunct objects orbiting the Earth. Examples of debris include non-operational satellites, rocket bodies, and fragments generated from explosions, collisions, or faulty payload assembly.

Loading next visibility...
Identifier
2997, 1963-014AU
Orbit
LEO
Country
Flag of USUS
Related business
Manufacturer
Unknown
Mission
Spacecraft
Bus & Motor
Unknown
Mass
Unknown
Launch date (UTC)
1963-05-09 (62 years ago)
Launch vehicle
Unknown
Launch site
Air Force Western Test Range (AFWTR)
Object type
Payload
Rocket body
Debris
Shape & HBR
Unknown
Radar Cross Section
Medium (>0.1 m² and <1 m²)

Expand to show TLE details & history
Last TLE update: 2 days ago

TLE from 2 days ago
0 WESTFORD NEEDLES
1 02997U 63014AU  25259.20709095 -.00000528  00000-0 -15088+0 0  9994
2 02997  86.7865 198.1772 0854384 189.7129 168.6230  8.77672221292420
Epoch: 2025-09-16T04:58Z
TLE epoch observation values (Epoch: 2025-09-16T04:58:12.658Z)
Latitude
-0.00006°
Longitude
128.22375°
Altitude
4,385.869 km
Speed
5.825 km/s
True Right ascension
13h 12m 42s
True Declination
0° 00' 00"
Sunlit
Object was in daylight at epoch
Visualization orbit readout
Latitude
Unknown
Longitude
Unknown
Altitude
Unknown
Speed
Unknown
Apparent Right ascension
Unknown
Apparent Declination
Unknown
Sunlit
N/A
Visualization observer readout
Local Sidereal Time
17:40:59
Azimuth
Unknown
Elevation
Unknown
Doppler factor
Unknown
Orbital elements
Apogee altitude
4,395.323 km
Perigee altitude
2,699.295 km
Semi-major axis
9,925.446 km
Eccentricity
0.08544
Inclination
86.7865°
RAAN
198.1772°
Arg. of periapsis
189.7129°
True anomaly
170.37041°
Mean anomaly
168.623°
Eccentric anomaly
169.51392°
Mean motion
2.19492 °/min
Orbital period
164.02 mins
BSTAR
-0.15088
Loading maneuver chart data...
Computing Atmospheric mass density...

Documentation

Showing up to 5 results
|